Location: Newark
(45.2500°N, 7.5833°E)
Time: 14:18:12
(UTC+00:00)

Courier 1B - All Passes

Search period start: 17 January 2020 00:00
Search period end: 27 January 2020 00:00
Orbit: 962 x 1209 km, 28.3° (Epoch: 16 January)

Date Brightness Start Highest point End Pass type
(mag) Time Alt. Az. Time Alt. Az. Time Alt. Az.
17 Jan - 04:56:40 10° S 05:00:30 14° SSE 05:04:20 10° SE visible
17 Jan - 06:47:56 10° SW 06:53:32 21° S 06:59:04 10° SE daylight
17 Jan - 08:41:25 10° SW 08:46:38 19° S 08:51:44 10° SSE daylight
18 Jan - 04:04:36 10° S 04:06:56 11° SSE 04:09:17 10° SE visible
18 Jan - 05:54:29 10° SW 05:59:53 20° S 06:05:16 10° SE visible
18 Jan - 07:47:28 10° SW 07:53:00 21° S 07:58:28 10° SE daylight
18 Jan - 09:42:42 10° SW 09:45:57 13° SSW 09:49:10 10° S daylight
19 Jan - 05:01:16 10° SSW 05:06:15 18° SSE 05:11:17 10° SE visible
19 Jan - 06:53:41 10° SW 06:59:21 22° S 07:05:00 10° SE daylight
19 Jan - 08:48:03 10° SW 08:52:24 16° SSW 08:56:42 10° SSE daylight
20 Jan - 04:08:17 10° SSW 04:12:39 16° SSE 04:17:04 10° SE visible
20 Jan - 06:00:03 10° SW 06:05:42 22° S 06:11:22 10° SE visible
20 Jan - 07:53:48 10° SW 07:58:48 18° SSW 08:03:45 10° SSE daylight
21 Jan - 03:15:46 10° S 03:19:05 13° SSE 03:22:27 10° SE visible
21 Jan - 05:06:34 10° SW 05:12:03 21° S 05:17:35 10° SE visible
21 Jan - 06:59:48 10° SW 07:05:10 20° S 07:10:32 10° SE daylight
21 Jan - 08:55:58 10° SW 08:58:06 11° SSW 09:00:14 10° S daylight
22 Jan - 02:24:39 10° SSE 02:25:34 10° SSE 02:26:30 10° SSE visible
22 Jan - 04:13:17 10° SSW 04:18:25 20° S 04:23:39 10° SE visible
22 Jan - 06:06:00 10° SW 06:11:31 21° S 06:17:06 10° SE visible
22 Jan - 08:00:48 10° SW 08:04:33 14° SSW 08:08:16 10° S daylight
23 Jan - 03:20:13 10° SSW 03:24:50 17° SSE 03:29:32 10° SE visible
23 Jan - 05:12:20 10° SW 05:17:52 22° S 05:23:31 10° SE visible
23 Jan - 07:06:24 10° SW 07:10:57 17° SSW 07:15:31 10° SSE daylight
24 Jan - 02:27:28 10° SSW 02:31:16 15° SSE 02:35:09 10° SE visible
24 Jan - 04:18:51 10° SW 04:24:14 21° S 04:29:46 10° SE visible
24 Jan - 06:12:20 10° SW 06:17:20 19° SSW 06:22:24 10° SSE visible
25 Jan - 01:35:22 10° S 01:37:46 12° SSE 01:40:12 10° SE visible
25 Jan - 03:25:31 10° SW 03:30:38 20° S 03:35:53 10° SE visible
25 Jan - 05:18:29 10° SW 05:23:42 20° S 05:29:02 10° SE visible
25 Jan - 07:14:04 10° SW 07:16:41 12° SSW 07:19:19 10° S daylight
26 Jan - 02:32:23 10° SSW 02:37:03 18° SSE 02:41:52 10° SE visible
26 Jan - 04:24:48 10° SW 04:30:05 21° S 04:35:30 10° SE visible
26 Jan - 06:19:18 10° SW 06:23:07 14° SSW 06:26:58 10° SSE visible
